Home   Weather   Herzliya   Past weeks

Flag for Israel Past Weather in Herzliya, Israel — Yesterday and Last 2 Weeks

Now
64 °F

Passing clouds.


Feels Like: 64 °F
Forecast: 54 / 65 °F
Wind: 10 mph from West

Location: Dov Airport

Current Time: Dec 10, 2016 at 10:40:23 pm

Latest Report: Dec 10, 2016 at 9:50 pm


Visibility: N/A

Pressure: 30.18 "Hg

Humidity: 52%

Dew Point: 46 °F

Location of HerzliyaLocation

Past Weather in Herzliya — Graph

°F

Herzliya Temperature Yesterday

Maximum temperature yesterday: 63 °F (at 11:50 am)
Minimum temperature yesterday: 52 °F (at 5:50 am)
Average temperature yesterday: 58 °F

High & Low Weather Summary for the Past Weeks

 TemperatureHumidityPressure
High81 °F (Nov 28, 1:50 pm)94% (Dec 1, 3:02 pm)30.33 "Hg (Dec 1, 3:02 pm)
Low48 °F (Dec 10, 6:03 am)5% (Nov 26, 2:50 pm)29.74 "Hg (Dec 1, 1:50 pm)
Average64 °F53%30.09 "Hg
* Reported Nov 25 8:50 pm — Dec 10 8:50 pm, Herzliya, Weather by CustomWeather, © 2016

Note: Actual official high and low records may vary slightly from our data, if they occured in-between our weather recording intervals... More about our weather records

Advertising

Herzliya Weather History for the Previous 24 Hours

Scroll right to see more
 ConditionsComfort  
Time TempWeatherWind HumidityBarometerVisibility
8:50 pm
Sat, Dec 10
64 °FPassing clouds.9 mph56%30.18 "HgN/A
7:50 pm64 °FClear.7 mph43%30.18 "Hg10 mi
6:50 pm64 °FClear.6 mph43%30.18 "Hg10 mi
5:50 pm64 °FPassing clouds.12 mph46%30.18 "HgN/A
4:50 pm64 °FPassing clouds.13 mph46%30.15 "HgN/A
3:50 pm64 °FPartly sunny.12 mph56%30.15 "HgN/A
2:50 pm64 °FScattered clouds.10 mph60%30.15 "HgN/A
1:50 pm64 °FPassing clouds.8 mph52%30.15 "HgN/A
12:50 pm64 °FPassing clouds.5 mph49%30.18 "HgN/A
11:50 am64 °FPassing clouds.3 mph49%30.18 "HgN/A
10:50 am64 °FPassing clouds.3 mph46%30.21 "HgN/A
9:50 am61 °FPassing clouds.6 mph48%30.21 "HgN/A
8:50 am57 °FPassing clouds.6 mph55%30.24 "HgN/A
7:50 am52 °FPassing clouds.7 mph67%30.21 "HgN/A
6:50 am50 °FPassing clouds.7 mph67%30.21 "HgN/A
6:03 am48 °FClear.7 mph71%30.21 "Hg10 mi
Weather by CustomWeather, © 2016

See weather overviewHow to use our weather pages